Flag for U.S.A. Weather past 2 weeks in Tulsa, Oklahoma, U.S.A.

Now
63 °F

Passing clouds.


Feels Like: 63 °F
Forecast: 58 / 83 °F
Wind: 7 mph from South

Location: Tulsa International Airport

Current Time: Mar 31, 2015 at 5:07:18 AM

Latest Report: Mar 31, 2015 at 3:53 AM


Visibility: 10 mi

Pressure: 29.92 "Hg

Humidity: 90%

Dew point: 60 °F

Location of TulsaLocation

Historic Weather in Tulsa — Graph

°F

Tulsa temperature yesterday

Maximum temperature yesterday: 77 °F (at 4:53 PM)
Minimum temperature yesterday: 43 °F (at 6:53 AM)
Average temperature yesterday: 61 °F

Past Weeks' High & Low Weather Summary

 TemperatureHumidityPressure
High82 °F (Mar 24, 2:53 PM)100% (Mar 19, 7:53 AM)30.24 "Hg (Mar 19, 7:53 AM)
Low40 °F (Mar 20, 7:53 AM)26% (Mar 30, 2:53 PM)29.56 "Hg (Mar 25, 5:55 PM)
Average57 °F68%30.04 "Hg
* Reported Mar 16 3:53 AM — Mar 31 3:53 AM, Tulsa, Weather by CustomWeather, © 2015

Note: Actual official high and low records may vary slightly from our data, if they occured in-between our weather recording intervals... More about our weather records

Advertising

Tulsa weather history for previous 24 hours

 ConditionsComfort  
Time TempWeatherWind HumidityBarometerVisibility
3:53 AM
Tue, Mar 31
63 °FPassing clouds.7 mph90%29.92 "Hg10 mi
2:53 AM64 °FOvercast.9 mph90%29.94 "Hg10 mi
1:53 AM66 °FMostly cloudy.10 mph81%29.96 "Hg10 mi
12:53 AM66 °FPartly cloudy.12 mph78%29.96 "Hg10 mi
11:53 PM
Mon, Mar 30
65 °FPartly cloudy.9 mph54%29.98 "Hg10 mi
10:53 PM61 °FPartly cloudy.3 mph58%30.01 "Hg10 mi
9:53 PM66 °FPassing clouds.7 mph47%29.99 "Hg10 mi
8:53 PM68 °FPartly cloudy.5 mph42%29.99 "Hg10 mi
7:53 PM70 °FBroken clouds.8 mph39%29.98 "Hg10 mi
6:53 PM75 °FPartly sunny.9 mph31%29.99 "Hg10 mi
5:53 PM77 °FPassing clouds.13 mph28%30.00 "Hg10 mi
4:53 PM77 °FPassing clouds.8 mph29%30.02 "Hg10 mi
3:53 PM76 °FPassing clouds.8 mph29%30.04 "Hg10 mi
2:53 PM74 °FPassing clouds.5 mph26%30.09 "Hg10 mi
1:53 PM72 °FPassing clouds.6 mph31%30.14 "Hg10 mi
12:53 PM69 °FPassing clouds.5 mph32%30.16 "Hg10 mi
11:53 AM66 °FPassing clouds.5 mph42%30.20 "Hg10 mi
10:53 AM62 °FSunny.3 mph50%30.20 "Hg10 mi
9:53 AM59 °FSunny.7 mph56%30.20 "Hg10 mi
8:53 AM52 °FPassing clouds.3 mph77%30.22 "Hg10 mi
7:53 AM45 °FClear.No wind90%30.20 "Hg7 mi
6:53 AM43 °FClear.3 mph93%30.19 "Hg7 mi
5:53 AM44 °FClear.No wind93%30.17 "Hg10 mi
Weather by CustomWeather, © 2015

See weather overviewHow to use our weather pages